{"data":{"norad_id":61712,"intl_designator":"2024-196F","name":"STARLINK-32343","alt_names":[],"object_type":"PAYLOAD","status":"ACTIVE","operator":null,"country":"US","launch_date":"2024-10-30","launch_site_code":"AFETR","launch_vehicle":null,"mission":null,"orbit_class":"UNKNOWN","rcs_meters":null,"size_class":null,"mass_kg":null,"dimensions":null,"purposes":["comms"],"wikipedia_slug":null,"has_3d_model":false,"image_url":null,"decayed_at":null,"tle_current":{"epoch":"2026-05-25T03:54:27.559872Z","epoch_age_seconds":67948,"freshness":"FRESH","line1":"1 61712U 24196F   26145.16281898  .00000412  00000+0  26028-4 0  9998","line2":"2 61712  53.1603 106.2235 0001375  85.2214 274.8944 15.30193695 88864","mean_motion":15.30193695,"eccentricity":0.0001375,"inclination_deg":53.1603,"raan_deg":106.2235,"arg_perigee_deg":85.2214,"mean_anomaly_deg":274.8944,"bstar":2.6028e-5,"rev_number":8886,"period_min":94.105733457489,"perigee_km":474.29155657941,"apogee_km":476.17623357555,"semimajor_km":6853.3708950775,"source":"CELESTRAK","updated_at":"2026-05-25T13:38:19.444671Z"}}}